Flag for U.S.A. Weather past 2 weeks in Livonia, Michigan, U.S.A.

Now
24 °F

Mostly cloudy.


Feels Like: 16 °F
Forecast: 17 / 38 °F
Wind: 7 mph from South

Location: Detroit Metropolitan Wayne County Airport

Current Time: Mar 3, 2015 at 3:27:44 AM

Latest Report: Mar 3, 2015 at 2:53 AM


Visibility: 8 mi

Pressure: 30.32 "Hg

Humidity: 71%

Dew point: 16 °F

Location of LivoniaLocation

Historic Weather in Livonia — Graph

°F

Livonia temperature yesterday

Maximum temperature yesterday: 32 °F (at 2:53 PM)
Minimum temperature yesterday: 21 °F (at 7:53 AM)
Average temperature yesterday: 26 °F

Past Weeks' High & Low Weather Summary

 TemperatureHumidityPressure
High32 °F (Mar 2, 2:53 PM)92% (Feb 21, 9:53 PM)30.83 "Hg (Feb 21, 9:53 PM)
Low-11 °F (Feb 20, 5:53 AM)38% (Feb 19, 11:53 AM)29.70 "Hg (Feb 24, 11:53 PM)
Average12 °F66%30.25 "Hg
* Reported Feb 16 1:53 AM — Mar 3 1:53 AM, Livonia, Weather by CustomWeather, © 2015

Note: Actual official high and low records may vary slightly from our data, if they occured in-between our weather recording intervals... More about our weather records

Advertising

Livonia weather history for previous 24 hours

 ConditionsComfort  
Time TempWeatherWind HumidityBarometerVisibility
1:53 AM
Tue, Mar 3
23 °FMostly cloudy.6 mph74%30.36 "Hg8 mi
12:53 AM23 °FOvercast.8 mph72%30.37 "Hg9 mi
11:53 PM
Mon, Mar 2
24 °FOvercast.6 mph68%30.38 "Hg9 mi
10:53 PM24 °FMostly cloudy.5 mph68%30.40 "Hg10 mi
9:53 PM23 °FPartly cloudy.3 mph65%30.41 "Hg10 mi
8:53 PM25 °FPartly cloudy.6 mph60%30.42 "Hg10 mi
7:53 PM25 °FPassing clouds.6 mph55%30.44 "Hg10 mi
6:53 PM29 °FPassing clouds.No wind47%30.45 "Hg10 mi
5:53 PM30 °FPartly sunny.6 mph43%30.44 "Hg10 mi
4:53 PM32 °FPartly sunny.10 mph41%30.45 "Hg10 mi
3:53 PM32 °FPartly sunny.12 mph43%30.45 "Hg10 mi
2:53 PM32 °FScattered clouds.8 mph43%30.46 "Hg10 mi
1:53 PM31 °FScattered clouds.9 mph45%30.47 "Hg10 mi
12:53 PM30 °FScattered clouds.8 mph47%30.48 "Hg10 mi
11:53 AM29 °FScattered clouds.12 mph49%30.49 "Hg10 mi
10:53 AM27 °FScattered clouds.8 mph53%30.47 "Hg10 mi
9:53 AM25 °FPassing clouds.8 mph58%30.46 "Hg10 mi
8:53 AM23 °FPassing clouds.9 mph60%30.45 "Hg10 mi
7:53 AM21 °FScattered clouds.8 mph65%30.42 "Hg10 mi
6:53 AM22 °FPartly cloudy.7 mph68%30.39 "Hg9 mi
5:59 AM25 °FLight snow. Overcast.10 mph74%30.33 "Hg6 mi
4:53 AM23 °FLight snow. Mostly cloudy.7 mph78%30.33 "Hg5 mi
3:53 AM23 °FLight snow. Mostly cloudy.13 mph78%30.29 "Hg5 mi
Weather by CustomWeather, © 2015

See weather overviewHow to use our weather pages